Home > Time Zones > World Clock > Weather > France > Lens > Past weeks

Flag for France Weather past 2 weeks in Lens, France

Now
75 °F

Passing clouds.


Feels Like: 77 °F
Forecast: 55 / 64 °F
Wind: 2 mph from North

Location: Lille Airport

Current Time: Sep 20, 2014 at 4:06:22 PM

Latest Report: Sep 20, 2014 at 3:30 PM


Visibility: N/A

Pressure: 29.95 "Hg

Humidity: 65%

Dew point: 63 °F

Location of LensLocation

Historic Weather in Lens — Graph

°F

Lens temperature yesterday

Maximum temperature yesterday: 81 °F (at 5:00 PM)
Minimum temperature yesterday: 59 °F (at 6:00 AM)
Average temperature yesterday: 68 °F

Past Weeks' High & Low Weather Summary

 TemperatureHumidityPressure
High81 °F (Sep 17, 3:30 PM)100% (Sep 6, 3:30 AM)30.27 "Hg (Sep 6, 3:30 AM)
Low52 °F (Sep 9, 4:00 AM)48% (Sep 17, 3:00 PM)29.77 "Hg (Sep 18, 3:00 AM)
Average64 °F79%30.02 "Hg
* Reported Sep 5 3:00 PM — Sep 20 3:00 PM, Lens, Weather by CustomWeather, © 2014

Note: Actual official high and low records may vary slightly from our data, if they occured in-between our weather recording intervals... More about our weather records

Advertising

Lens weather history for previous 24 hours

 ConditionsComfort  
Time TempWeatherWind HumidityBarometerVisibility
3:00 PM
Sep 20
75 °FPassing clouds.3 mph61%29.95 "HgN/A
2:00 PM75 °FScattered clouds.3 mph69%29.95 "HgN/A
1:30 PM73 °FScattered clouds.2 mph74%29.98 "HgN/A
1:00 PM73 °FScattered clouds.1 mph69%29.98 "HgN/A
12:30 PM72 °FPassing clouds.2 mph73%29.98 "HgN/A
12:00 PM72 °FPartly sunny.1 mph73%29.98 "HgN/A
11:30 AM70 °FPartly sunny.No wind78%29.98 "HgN/A
11:00 AM70 °FPartly sunny.No wind78%29.95 "HgN/A
10:30 AM66 °FPartly sunny.No wind94%29.95 "Hg6 mi
10:00 AM64 °FPartly sunny.No wind94%29.95 "Hg4 mi
9:30 AM63 °FClear.No wind100%29.95 "Hg4 mi
9:00 AM63 °FClear.3 mph94%29.95 "Hg4 mi
8:30 AM61 °FFog.3 mph100%29.95 "Hg1 mi
8:00 AM61 °FFog.2 mph100%29.95 "Hg1 mi
7:30 AM61 °FFog.2 mph100%29.92 "Hg1 mi
7:07 AM61 °FFog.2 mph94%29.92 "Hg1 mi
6:30 AM61 °FClear.1 mph100%29.92 "Hg4 mi
6:00 AM63 °FClear.6 mph94%29.92 "Hg10 mi
5:00 AM63 °FLight rain. Mostly cloudy.6 mph94%29.89 "HgN/A
4:30 AM63 °FRain. Fog.2 mph94%29.92 "Hg3 mi
4:00 AM63 °FLight rain. Fog.7 mph94%29.92 "Hg2 mi
3:00 AM61 °FCool.2 mph94%29.92 "Hg4 mi
2:30 AM61 °FFog.2 mph94%29.92 "Hg3 mi
2:00 AM61 °FClear.No wind100%29.92 "Hg10 mi
1:00 AM61 °FClear.1 mph100%29.92 "Hg10 mi
12:00 AM63 °FClear.No wind94%29.92 "Hg10 mi
11:00 PM
Sep 19
63 °FClear.2 mph94%29.89 "Hg10 mi
10:00 PM64 °FClear.3 mph88%29.89 "Hg10 mi
9:30 PM66 °FClear.3 mph83%29.89 "Hg10 mi
9:00 PM66 °FClear.2 mph88%29.89 "Hg10 mi
8:30 PM66 °FScattered clouds.5 mph78%29.89 "HgN/A
8:00 PM68 °FScattered clouds.9 mph73%29.86 "HgN/A
7:30 PM66 °FThunderstorms. Broken clouds.9 mph78%29.86 "HgN/A
7:00 PM68 °FThunderstorms. Scattered clouds.17 mph73%29.89 "Hg2 mi
6:30 PM70 °FThunderstorms. Partly sunny.8 mph78%29.86 "Hg2 mi
6:00 PM75 °FThunderstorms. Broken clouds.5 mph57%29.86 "HgN/A
5:30 PM79 °FBroken clouds.3 mph51%29.86 "HgN/A
5:00 PM81 °FPartly sunny.5 mph48%29.86 "HgN/A
4:30 PM79 °FPartly sunny.8 mph54%29.86 "HgN/A
4:00 PM79 °FBroken clouds.7 mph54%29.86 "HgN/A
Weather by CustomWeather, © 2014

See weather overviewHow to use our weather pages